This demonstration page uses our WeatherBlox Daily Observations layout. Learn more.

Left ArrowRight Arrow

39.29038, -76.61219

Hourly Observations for November 3, 2020

Temp ( °F °C ) Dew Point ( °F °C ) Humidity (%) Winds ( mph kmh ) Pressure ( in mb ) Visibility ( mi km ) Precip ( " mm )
12:54 am 00:54 Mostly Cloudy 43 6.1 18 -7.8 37 37 SW 10 17 30.01 1016 10 16 0.00 0.00
1:54 am 01:54 Mostly Cloudy 43 6.1 19 -7.2 38 38 SW 13 20 30.03 1017 10 16 0.00 0.00
2:54 am 02:54 Mostly Clear 42 5.6 19 -7.2 40 40 WSW 10 17 30.03 1017 10 16 0.00 0.00
3:54 am 03:54 Mostly Clear 44 6.7 17 -8.3 34 34 W 15 24 30.03 1017 10 16 0.00 0.00
4:54 am 04:54 Mostly Clear 45 7.2 17 -8.3 33 33 W 14 22 30.04 1017 10 16 0.00 0.00
5:54 am 05:54 Partly Cloudy 46 7.8 18 -7.8 32 32 W 20 31 30.04 1017 10 16 0.00 0.00
6:54 am 06:54 Mostly Sunny 48 8.9 19 -7.2 32 32 WNW 25 41 30.04 1017 10 16 0.00 0.00
7:54 am 07:54 Mostly Cloudy 50 10 20 -6.7 30 30 WNW 21 33 30.08 1019 10 16 0.00 0.00
8:54 am 08:54 Mostly Cloudy 51 10.6 22 -5.6 32 32 W 20 31 30.09 1019 10 16 0.00 0.00
9:54 am 09:54 Mostly Cloudy 54 12.2 24 -4.4 31 31 W 21 33 30.12 1020 10 16 0.00 0.00
10:54 am 10:54 Partly Cloudy 56 13.3 25 -3.9 30 30 WNW 22 35 30.12 1020 10 16 0.00 0.00
11:54 am 11:54 Partly Cloudy 58 14.4 26 -3.3 29 29 WNW 22 35 30.11 1020 10 16 0.00 0.00
12:54 pm 12:54 Mostly Sunny 60 15.6 28 -2.2 30 30 WNW 15 24 30.10 1019 10 16 0.00 0.00
1:54 pm 13:54 Partly Cloudy 62 16.7 29 -1.7 29 29 W 9 15 30.10 1019 10 16 0.00 0.00
2:54 pm 14:54 Mostly Cloudy 59 15 29 -1.7 32 32 W 12 19 30.13 1020 10 16 0.00 0.00
3:54 pm 15:54 Mostly Cloudy 58 14.4 30 -1.1 35 35 WNW 6 9 30.16 1021 10 16 0.00 0.00
4:54 pm 16:54 Mostly Cloudy 57 13.9 30 -1.1 36 36 Calm 30.16 1022 10 16 0.00 0.00
5:54 pm 17:54 Partly Cloudy 54 12.2 32 0 43 43 S 3 6 30.19 1022 10 16 0.00 0.00
6:54 pm 18:54 Partly Cloudy 48 8.9 35 1.7 61 61 Calm 30.22 1023 10 16 0.00 0.00
7:54 pm 19:54 Mostly Clear 46 7.8 35 1.7 66 66 Calm 30.23 1024 10 16 0.00 0.00
8:54 pm 20:54 Mostly Clear 43 6.1 36 2.2 76 76 Calm 30.27 1025 10 16 0.00 0.00
9:54 pm 21:54 Mostly Clear 43 6.1 36 2.2 76 76 Calm 30.29 1026 10 16 0.00 0.00
10:54 pm 22:54 Mostly Clear 40 4.4 35 1.7 83 83 WNW 3 6 30.31 1026 10 16 0.00 0.00
11:54 pm 23:54 Clear 39 3.9 35 1.7 86 86 VRB 3 6 30.32 1027 10 16 0.00 0.00

Powered by AerisWeather